Location: Waldport
(44.4270°N, 124.0680°W)
Time: 09:09:29
(UTC-07:00)

Daily predictions for brighter satellites

Satellite Brightness Start Highest point End
(mag) Time Altitude Azimuth Time Altitude Azimuth Time Altitude Azimuth
Cosmos 1025 Rocket 4.3 21:19:25 10° SSW 21:23:38 46° WNW 21:27:53 10° N
BREEZE-M DEB (TANK) 3.3 21:22:47 10° SW 21:27:17 30° SSE 21:29:28 10° E
Meteor 2-4 Rocket 4.0 21:24:06 10° SSW 21:29:58 83° W 21:35:58 10° N
H-2A R/B 4.2 21:26:28 10° SSW 21:30:10 38° W 21:33:54 10° NNW
PSLV R/B 3.9 21:28:11 10° SE 21:31:05 38° ENE 21:34:01 10° N
Cosmos 2333 Rocket 4.4 21:26:09 10° WSW 21:31:08 31° NW 21:36:09 10° N
Okean 2 3.7 21:29:27 10° SSW 21:33:37 73° W 21:37:48 10° N
Aureole 2 Rocket 2.6 21:31:21 10° SSW 21:35:14 84° WNW 21:38:47 10° NNE
Cosmos 1943 4.3 21:34:40 10° SSE 21:39:10 25° ESE 21:43:41 10° NE
CZ-2C R/B 2.5 21:38:10 10° SSW 21:40:11 26° W 21:42:12 10° NW
Lacrosse 4 Rocket 3.3 21:39:20 10° ESE 21:40:32 11° ESE 21:41:44 10° E
Cosmos 1943 Rocket 4.1 21:37:28 10° N 21:41:05 17° NE 21:44:41 10° E
USA 186 4.3 21:39:31 10° SW 21:41:22 16° W 21:43:09 10° NW
H-2A R/B 3.9 21:39:26 10° E 21:42:21 16° ENE 21:45:17 10° NNE
MetOp-A 4.5 21:37:25 10° SE 21:42:36 52° ENE 21:47:48 10° N
Nimbus 7 Rocket 4.4 21:40:08 10° NNE 21:46:07 73° ESE 21:52:00 10° S
SeaSat 1 2.5 21:44:09 10° SE 21:49:04 76° ENE 21:54:02 10° NNW
UNK 4.5 21:45:04 10° NNE 21:50:20 50° ESE 21:55:51 10° S
SPOT 1/Viking Rocket 4.1 21:45:59 11° SE 21:50:40 44° ENE 21:55:33 10° N
CZ-4B R/B 3.9 21:51:24 10° NNE 21:56:17 45° E 22:01:14 10° S
Cosmos 1461 3.9 21:54:49 10° NW 21:58:54 41° WSW 22:02:45 10° S
Cosmos 1238 4.1 22:02:01 10° S 22:05:08 65° E 22:08:08 10° NNE
ARGOS 3.3 22:14:47 17° SSE 22:19:00 63° ENE 22:24:22 10° N
Cosmos 2369 Rocket 2.3 22:15:33 10° NNW 22:21:14 70° ENE 22:25:16 20° SE
ISS -3.4 22:19:00 10° SW 22:22:13 59° SE 22:25:27 10° ENE
Tsikada Rocket 4.4 22:16:41 10° SSW 22:23:03 67° W 22:29:25 10° N
Cosmos 1825 Rocket 3.6 22:20:09 14° S 22:23:54 64° E 22:28:18 10° NNE
CZ-4C R/B 3.9 22:22:04 21° SE 22:24:35 47° ENE 22:28:30 10° N
ATLAS 3B R/B 3.1 22:19:19 10° S 22:26:42 51° ESE 22:33:55 10° NE
PSLV R/B 3.7 22:23:41 10° WSW 22:27:04 43° S 22:28:46 24° ESE
Cosmos 1812 Rocket 4.5 22:24:02 10° NNW 22:28:15 46° W 22:32:27 10° SSW
Envisat 4.1 22:26:43 10° SSW 22:31:28 40° W 22:36:14 10° NNW
SL-8 R/B 4.5 22:26:59 10° WNW 22:31:43 53° N 22:36:28 10° E
Atlas Centaur 2 3.8 22:27:25 10° SW 22:33:54 29° S 22:38:00 20° SE
NOAA 11 4.2 22:31:39 20° SSE 22:35:31 79° ENE 22:40:58 10° NNW
Cosmos 407 Rocket 3.7 22:31:34 16° S 22:35:33 49° ESE 22:40:35 10° NNE
CZ-4 R/B 3.9 22:33:21 10° NNE 22:38:22 77° ESE 22:42:44 14° S
SL-08 RB Rocket 3.6 22:37:33 23° SSE 22:40:21 82° ENE 22:44:54 10° NNW
USA 234 3.3 22:35:50 21° SE 22:40:31 71° SW 22:47:07 10° NW
Cosmos 1953 3.6 22:37:43 10° NNE 22:41:08 26° ENE 22:42:23 22° ESE
Cosmos 1515 4.5 22:39:02 10° SSW 22:42:48 52° WNW 22:46:36 10° N
Lacrosse 5 rocket 4.2 22:39:58 10° WNW 22:42:51 19° NNW 22:45:51 10° NNE
Cosmos 2263 4.2 22:41:58 10° NNW 22:47:38 82° ENE 22:50:53 26° SSE
SPOT 5 4.3 22:43:56 10° SSW 22:47:42 27° W 22:51:25 10° NW
Landsat 7 3.8 22:45:23 27° SSE 22:47:59 72° ENE 22:52:44 10° N
Spot 4 4.4 22:48:23 26° SE 22:50:38 44° ENE 22:55:11 10° N
YAOGAN 6 3.8 22:48:44 17° SSW 22:51:10 38° W 22:54:42 10° NNW
COSMOS 2406 4.3 22:51:28 24° ESE 22:52:44 26° ESE 22:57:21 10° NE
Meteor 1-22 Rocket 4.3 22:47:43 10° NNW 22:53:18 82° W 22:57:03 23° S
Cosmos 1954 Rocket 4.4 22:52:49 27° SSE 22:55:08 43° ESE 23:00:08 10° NNE
COSMOS 2455 3.5 22:53:12 10° SW 22:59:05 56° NW 23:05:02 10° NNE
Cosmos 1634 Rocket 4.3 22:53:14 10° NNW 22:59:18 61° W 23:04:03 17° SSW
Cosmos 1346 Rocket 3.0 22:59:54 22° SSW 23:02:19 66° W 23:06:15 10° N
Lacrosse 5 4.5 22:59:19 10° NW 23:02:58 19° N 23:06:37 10° NE
Terra 1.8 23:01:39 33° SSE 23:03:47 72° ENE 23:08:33 10° N
USA 238 DEB 4.3 23:01:03 25° SSE 23:04:20 38° ESE 23:10:45 10° NE
USA 238 4.3 23:01:14 25° SSE 23:04:27 38° ESE 23:10:50 10° NE
IGS 5A 3.5 23:04:05 38° SE 23:05:30 66° ENE 23:09:39 10° N
Cosmos 2084 4.0 23:05:27 10° NNW 23:09:27 48° NE 23:11:07 30° ESE
Cosmos 1953 Rocket 4.1 23:06:53 18° SSW 23:10:03 56° W 23:14:27 10° N
SAR-Lupe-2 3.6 23:14:02 47° S 23:14:55 71° WSW 23:18:31 10° NNW
Cosmos 1842 3.1 23:14:45 46° S 23:15:52 81° E 23:19:48 10° N
Lacrosse 4 Rocket 1.5 23:15:32 16° SW 23:18:38 69° WNW 23:22:45 10° NNE
Cosmos 2221 4.4 23:17:56 10° NNE 23:20:46 17° ENE 23:21:43 16° E
H-2A R/B 2.0 23:18:56 34° S 23:21:07 75° WSW 23:26:13 10° NNW
Cosmos 2279 Rocket 4.2 23:16:20 10° NNW 23:22:33 70° W 23:26:09 26° S
Geosat 4.1 23:17:33 10° NNE 23:22:37 78° WNW 23:26:55 14° SW
Cosmos 1943 4.0 23:17:19 10° SW 23:22:50 52° WNW 23:28:25 10° NNE
Cosmos-2242 3.0 23:19:36 10° N 23:24:03 83° W 23:25:25 44° S
Cosmos 1943 Rocket 2.1 23:20:03 10° NNW 23:25:37 90° ENE 23:27:52 38° SSE
Cosmos 1758 3.3 23:22:55 10° N 23:27:04 84° E 23:27:57 54° SSE
Cosmos 1570 Rocket 4.2 23:23:07 10° NNW 23:28:29 65° ENE 23:30:26 38° SE
Cosmos 1850 Rocket 4.4 23:30:32 40° SE 23:31:36 45° ESE 23:36:34 10° NNE
Cosmos 1932 4.3 23:31:51 24° SSW 23:35:46 72° ESE 23:42:00 10° NE
Okean 3 Rocket 4.4 23:37:59 33° E 23:38:13 33° E 23:42:10 10° NNE
SL-23 DEB 3.8 23:34:55 10° SW 23:40:15 75° SSE 23:43:41 10° ENE
Cosmos 1656 Rocket 3.9 23:34:48 10° NNW 23:40:28 60° ENE 23:42:37 36° SE
Cosmos 1733 4.3 23:38:10 10° N 23:41:40 31° ENE 23:41:50 31° E
Cosmos 1607 4.2 23:40:55 39° SSE 23:42:39 48° ESE 23:48:36 10° NE
Cosmos 1023 Rocket 4.4 23:42:48 42° S 23:44:37 76° ESE 23:49:55 10° NNE
DMSP B5D2-2 4.3 23:39:59 10° N 23:45:15 68° WNW 23:48:02 28° SSW
Meteor 2-5 Rocket 4.2 23:48:01 39° SE 23:49:33 48° E 23:55:05 10° NNE
Cosmos 1140 Rocket 3.4 23:48:51 41° SSW 23:50:45 85° ESE 23:56:02 10° NNE
COSMOS 2487 3.7 23:55:27 32° ENE 23:55:27 32° ENE 23:57:54 10° NE
